Home > Weather > Russia > Nizhny Novgorod > Past weeks

Flag for Russia Weather past 2 weeks in Nizhny Novgorod, Russia

36 °F

Low clouds.

Feels Like: 26 °F
Forecast: 29 / 32 °F
Wind: 15 mph from South

Location: Nizhny Novgorod/Strigino

Current Time: Dec 1, 2015 at 4:08:16 PM

Latest Report: Dec 1, 2015 at 3:30 PM

Visibility: 6 mi

Pressure: 29.56 "Hg

Humidity: 93%

Dew point: 34 °F

Location of Nizhny NovgorodLocation

Historic Weather in Nizhny Novgorod — Graph


Nizhny Novgorod temperature yesterday

Maximum temperature yesterday: 36 °F (at 11:30 PM)
Minimum temperature yesterday: 23 °F (at 12:00 AM)
Average temperature yesterday: 30 °F

Past Weeks' High & Low Weather Summary

High37 °F (Nov 21, 9:30 PM)100% (Nov 20, 7:00 PM)30.18 "Hg (Nov 20, 7:00 PM)
Low14 °F (Nov 29, 7:00 AM)63% (Nov 30, 3:30 AM)29.27 "Hg (Nov 21, 8:30 AM)
Average29 °F87%29.88 "Hg
* Reported Nov 16 3:00 PM — Dec 1 3:00 PM, Nizhny Novgorod, Weather by CustomWeather, © 2015

Note: Actual official high and low records may vary slightly from our data, if they occured in-between our weather recording intervals... More about our weather records


Nizhny Novgorod weather history for previous 24 hours

Time TempWeatherWind HumidityBarometerVisibility
3:00 PM
Tue, Dec 1
36 °FOvercast.13 mph93%29.56 "Hg6 mi
2:30 PM36 °FOvercast.13 mph87%29.56 "HgN/A
2:00 PM36 °FOvercast.15 mph87%29.56 "HgN/A
1:30 PM36 °FOvercast.13 mph87%29.56 "HgN/A
1:00 PM36 °FLight rain. Overcast.13 mph87%29.56 "Hg6 mi
12:30 PM36 °FOvercast.15 mph87%29.56 "HgN/A
12:00 PM36 °FOvercast.13 mph87%29.56 "HgN/A
11:30 AM36 °FOvercast.13 mph87%29.59 "HgN/A
10:30 AM36 °FOvercast.10 mph87%29.59 "HgN/A
10:00 AM36 °FLight rain. Overcast.10 mph87%29.59 "HgN/A
9:30 AM36 °FOvercast.13 mph87%29.59 "HgN/A
9:00 AM36 °FLight rain. Overcast.13 mph87%29.59 "HgN/A
8:30 AM36 °FPassing clouds.13 mph87%29.59 "HgN/A
7:30 AM36 °FPassing clouds.13 mph81%29.56 "HgN/A
7:00 AM34 °FPassing clouds.13 mph93%29.56 "HgN/A
6:30 AM34 °FLight snow. Passing clouds.13 mph93%29.56 "Hg5 mi
6:00 AM34 °FLight snow. Passing clouds.13 mph87%29.56 "HgN/A
5:30 AM34 °FLight snow. Passing clouds.8 mph87%29.56 "Hg6 mi
5:00 AM34 °FSnow flurries. Overcast.10 mph87%29.53 "HgN/A
3:30 AM34 °FSnow flurries. Overcast.15 mph87%29.53 "Hg4 mi
3:00 AM34 °FSnow flurries. Overcast.13 mph87%29.53 "Hg4 mi
2:30 AM34 °FLight snow. Overcast.15 mph87%29.53 "HgN/A
2:00 AM34 °FLow clouds.13 mph93%29.53 "HgN/A
1:30 AM36 °FOvercast.15 mph87%29.53 "Hg6 mi
1:00 AM34 °FLight rain. Overcast.13 mph93%29.53 "Hg6 mi
12:30 AM36 °FOvercast.13 mph87%29.56 "HgN/A
12:00 AM34 °FLight rain. Overcast.10 mph93%29.56 "Hg5 mi
11:30 PM
Mon, Nov 30
36 °FLight rain. Low clouds.13 mph87%29.56 "Hg6 mi
11:00 PM34 °FLight rain. Low clouds.13 mph93%29.56 "HgN/A
10:30 PM34 °FLight rain. Low clouds.13 mph93%29.59 "Hg6 mi
10:00 PM34 °FOvercast.13 mph93%29.59 "HgN/A
9:30 PM34 °FLight rain. Low clouds.13 mph93%29.59 "Hg5 mi
9:00 PM34 °FLow clouds.13 mph93%29.62 "Hg6 mi
8:30 PM34 °FLow clouds.13 mph93%29.62 "HgN/A
8:00 PM34 °FLow clouds.13 mph93%29.62 "HgN/A
7:30 PM34 °FLow clouds.15 mph87%29.65 "HgN/A
7:00 PM34 °FLow clouds.13 mph87%29.65 "HgN/A
6:30 PM34 °FOvercast.10 mph87%29.65 "HgN/A
6:00 PM34 °FLight rain. Overcast.8 mph87%29.68 "Hg6 mi
5:30 PM34 °FLight snow. Overcast.10 mph87%29.68 "Hg6 mi
5:00 PM34 °FLight snow. Overcast.13 mph87%29.68 "Hg4 mi
4:30 PM34 °FOvercast.10 mph81%29.68 "HgN/A
4:00 PM34 °FOvercast.13 mph81%29.71 "HgN/A
Weather by CustomWeather, © 2015

See weather overviewHow to use our weather pages